UAL177 KDEN-LIRF

Flight info

Callsign UAL177
Flight time N/A
Altitude 35000
Route CHUWY1 CHUWY Q88 DKOTA DCT 50N089W/N0499F370 DCT PELEE DCT VEPTU DCT MCKEE DCT AVUTI/M085F370 DCT 58N050W 59N040W 59N030W 58N020W DCT SUNOT/N0484F370 DCT KESIX DCT MIMKU DCT MAKUX/N0485F390 DCT SOSIM L15 FINMA DCT CHT DCT ITVIP DCT KONAN UL607 KOK DCT CIV DCT SUTAL DCT GTQ DCT DEVDI DCT ODINA DCT EKPAL DCT TINKU DCT XIBIL
Aircraft B789/H-VGDW/C

Departure

Time 2026-05-04 02:11
Airport Denver International Airport (KDEN)

Arrival

Time N/A
Airport Rome–Fiumicino Leonardo da Vinci International Airport (LIRF)
Time Latitude Longitude Altitude Speed Heading
2026-05-04 01:40 39.85809 -104.67460 5371 ft 0 kts 360°
2026-05-04 01:58 39.85807 -104.67460 5371 ft 2 kts 360°
2026-05-04 01:59 39.85781 -104.67460 5361 ft 4 kts 360°
2026-05-04 01:59 39.85754 -104.67460 5367 ft 4 kts 360°
2026-05-04 01:59 39.85727 -104.67461 5367 ft 4 kts 360°
2026-05-04 01:59 39.85716 -104.67461 5367 ft 0 kts 360°
2026-05-04 02:03 39.85718 -104.67462 5367 ft 0 kts 351°
2026-05-04 02:03 39.85722 -104.67468 5368 ft 1 kts 324°
2026-05-04 02:03 39.85726 -104.67476 5368 ft 2 kts 306°
2026-05-04 02:03 39.85726 -104.67506 5369 ft 3 kts 258°
2026-05-04 02:04 39.85716 -104.67532 5370 ft 4 kts 246°
2026-05-04 02:04 39.85705 -104.67561 5368 ft 6 kts 243°
2026-05-04 02:04 39.85681 -104.67622 5369 ft 9 kts 243°
2026-05-04 02:04 39.85650 -104.67703 5370 ft 11 kts 245°
2026-05-04 02:05 39.85619 -104.67805 5368 ft 12 kts 252°
2026-05-04 02:05 39.85600 -104.67906 5368 ft 11 kts 261°
2026-05-04 02:05 39.85596 -104.67999 5370 ft 10 kts 271°
2026-05-04 02:05 39.85597 -104.68096 5369 ft 11 kts 270°
2026-05-04 02:06 39.85597 -104.68200 5369 ft 12 kts 270°
2026-05-04 02:06 39.85598 -104.68310 5369 ft 12 kts 271°
2026-05-04 02:06 39.85599 -104.68414 5369 ft 11 kts 271°
2026-05-04 02:06 39.85582 -104.68495 5369 ft 8 kts 229°
2026-05-04 02:07 39.85536 -104.68513 5369 ft 8 kts 183°
2026-05-04 02:07 39.85470 -104.68514 5369 ft 12 kts 180°
2026-05-04 02:07 39.85366 -104.68516 5369 ft 16 kts 181°
2026-05-04 02:07 39.85258 -104.68518 5368 ft 15 kts 183°
2026-05-04 02:08 39.85203 -104.68604 5368 ft 13 kts 265°
2026-05-04 02:08 39.85202 -104.68731 5368 ft 14 kts 269°
2026-05-04 02:08 39.85199 -104.68860 5368 ft 14 kts 268°
2026-05-04 02:08 39.85197 -104.68990 5368 ft 15 kts 269°
2026-05-04 02:09 39.85196 -104.69131 5368 ft 15 kts 270°
2026-05-04 02:09 39.85198 -104.69265 5368 ft 15 kts 271°
2026-05-04 02:09 39.85201 -104.69404 5368 ft 15 kts 270°
2026-05-04 02:09 39.85203 -104.69536 5368 ft 14 kts 271°
2026-05-04 02:10 39.85235 -104.69647 5370 ft 12 kts 327°
2026-05-04 02:10 39.85286 -104.69657 5369 ft 1 kts
2026-05-04 02:10 39.85440 -104.69655 5369 ft 52 kts
2026-05-04 02:10 39.86012 -104.69648 5372 ft 114 kts
2026-05-04 02:11 39.86998 -104.69636 5370 ft 167 kts
2026-05-04 02:11 39.88295 -104.69613 5544 ft 196 kts 357°
2026-05-04 02:11 39.89628 -104.69566 6423 ft 193 kts 359°
2026-05-04 02:11 39.91048 -104.69584 6799 ft 210 kts 356°
2026-05-04 02:12 39.92544 -104.69586 7300 ft 226 kts 358°
2026-05-04 02:12 39.94207 -104.69538 7572 ft 252 kts 359°
2026-05-04 02:12 39.96036 -104.69481 7918 ft 274 kts 359°
2026-05-04 02:12 39.98001 -104.69431 8510 ft 284 kts 359°
2026-05-04 02:13 39.99986 -104.69382 9428 ft 287 kts 359°
2026-05-04 02:13 40.02047 -104.69333 9951 ft 308 kts 359°
2026-05-04 02:13 40.04279 -104.68810 10005 ft 347 kts 22°
2026-05-04 02:13 40.06459 -104.67182 10272 ft 373 kts 30°
2026-05-04 02:14 40.08595 -104.65336 11196 ft 374 kts 32°
2026-05-04 02:14 40.10801 -104.63408 12064 ft 379 kts 31°
2026-05-04 02:14 40.13035 -104.61548 12955 ft 382 kts 30°
2026-05-04 02:14 40.15284 -104.59693 13802 ft 387 kts 30°
2026-05-04 02:15 40.17562 -104.57774 14554 ft 392 kts 30°
2026-05-04 02:15 40.19861 -104.55821 15303 ft 397 kts 30°
2026-05-04 02:15 40.22198 -104.53849 16022 ft 402 kts 29°
2026-05-04 02:15 40.24565 -104.51860 16753 ft 407 kts 29°
2026-05-04 02:16 40.26959 -104.49840 17462 ft 412 kts 29°
2026-05-04 02:16 40.29379 -104.47792 18141 ft 417 kts 29°
2026-05-04 02:16 40.31832 -104.45715 18750 ft 422 kts 29°
2026-05-04 02:16 40.34315 -104.43614 19347 ft 427 kts 29°
2026-05-04 02:17 40.36815 -104.41498 19922 ft 431 kts 29°
2026-05-04 02:17 40.39347 -104.39349 20493 ft 435 kts 29°
2026-05-04 02:17 40.41908 -104.37174 21063 ft 440 kts 29°
2026-05-04 02:17 40.44486 -104.34983 21606 ft 444 kts 28°
2026-05-04 02:18 40.47053 -104.32801 22159 ft 448 kts 28°
2026-05-04 02:18 40.49676 -104.30568 22694 ft 452 kts 28°
2026-05-04 02:18 40.52329 -104.28308 23235 ft 455 kts 28°
2026-05-04 02:18 40.55033 -104.26002 23712 ft 459 kts 28°
2026-05-04 02:19 40.57646 -104.23576 24136 ft 466 kts 37°
2026-05-04 02:19 40.59955 -104.20531 24584 ft 472 kts 43°
2026-05-04 02:19 40.62166 -104.17391 24992 ft 475 kts 44°
2026-05-04 02:19 40.64396 -104.14180 25427 ft 477 kts 44°
2026-05-04 02:20 40.66648 -104.10956 25851 ft 480 kts 43°
2026-05-04 02:20 40.68924 -104.07721 26241 ft 483 kts 43°
2026-05-04 02:20 40.71206 -104.04465 26660 ft 486 kts 43°
2026-05-04 02:20 40.73502 -104.01170 27055 ft 488 kts 43°
2026-05-04 02:21 40.75804 -103.97865 27433 ft 491 kts 43°
2026-05-04 02:21 40.78121 -103.94544 27819 ft 493 kts 43°
2026-05-04 02:21 40.80445 -103.91209 28189 ft 496 kts 43°
2026-05-04 02:21 40.82788 -103.87839 28573 ft 498 kts 43°
2026-05-04 02:22 40.85137 -103.84455 28927 ft 501 kts 43°
2026-05-04 02:22 40.87495 -103.81055 29281 ft 503 kts 43°
2026-05-04 02:22 40.89867 -103.77634 29632 ft 505 kts 42°
2026-05-04 02:22 40.92250 -103.74192 29988 ft 507 kts 42°
2026-05-04 02:23 40.94637 -103.70739 30283 ft 509 kts 42°
2026-05-04 02:23 40.97033 -103.67270 30595 ft 511 kts 42°
2026-05-04 02:23 40.99429 -103.63797 30868 ft 513 kts 42°
2026-05-04 02:23 41.01846 -103.60288 31159 ft 515 kts 42°
2026-05-04 02:24 41.04261 -103.56778 31427 ft 517 kts 42°
2026-05-04 02:24 41.06678 -103.53261 31834 ft 515 kts 42°
2026-05-04 02:24 41.09090 -103.49747 32225 ft 515 kts 42°
2026-05-04 02:24 41.11492 -103.46245 32581 ft 514 kts 42°
2026-05-04 02:25 41.13900 -103.42731 32945 ft 513 kts 42°